Flag for Turkey Weather past 2 weeks in Ankara, Turkey

Now
93 °F

Sunny.


Feels Like: 89 °F
Forecast: 66 / 99 °F
Wind: 3 mph from North

Location: Ankara / Esenboga

Current Time: Jul 30, 2015 at 7:59:09 PM

Latest Report: Jul 30, 2015 at 7:20 PM


Visibility: 10 mi

Pressure: 29.83 "Hg (27.07 "Hg at 871m altitude)

Humidity: 17%

Dew point: 43 °F

Location of AnkaraLocation

Historic Weather in Ankara — Graph

°F

Ankara temperature yesterday

Maximum temperature yesterday: 91 °F (at 3:20 PM)
Minimum temperature yesterday: 64 °F (at 5:20 AM)
Average temperature yesterday: 81 °F

Past Weeks' High & Low Weather Summary

 TemperatureHumidityPressure
High95 °F (Jul 24, 3:50 PM)88% (Jul 18, 6:20 AM)30.15 "Hg (Jul 18, 6:20 AM)
Low54 °F (Jul 17, 4:50 AM)7% (Jul 20, 6:20 PM)29.80 "Hg (Jul 25, 3:50 PM)
Average75 °F41%29.96 "Hg
* Reported Jul 15 6:20 PM — Jul 30 6:50 PM, Ankara, Weather by CustomWeather, © 2015

Note: Actual official high and low records may vary slightly from our data, if they occured in-between our weather recording intervals... More about our weather records

Advertising

Ankara weather history for previous 24 hours

 ConditionsComfort  
Time TempWeatherWind HumidityBarometerVisibility
6:50 PM
Thu, Jul 30
93 °FSunny.6 mph16%29.83 "Hg10 mi
6:20 PM93 °FPassing clouds.7 mph16%29.83 "HgN/A
5:50 PM95 °FPassing clouds.6 mph14%29.83 "HgN/A
5:20 PM95 °FPassing clouds.9 mph13%29.83 "HgN/A
4:50 PM95 °FPassing clouds.7 mph14%29.86 "HgN/A
4:20 PM95 °FPassing clouds.8 mph14%29.86 "HgN/A
3:50 PM95 °FPassing clouds.6 mph18%29.86 "HgN/A
3:20 PM95 °FPassing clouds.6 mph18%29.86 "HgN/A
2:50 PM95 °FPassing clouds.7 mph19%29.89 "HgN/A
2:20 PM93 °FPassing clouds.7 mph20%29.89 "HgN/A
1:50 PM93 °FPassing clouds.7 mph19%29.89 "HgN/A
1:20 PM93 °FPassing clouds.6 mph17%29.89 "HgN/A
12:50 PM93 °FPassing clouds.5 mph19%29.92 "HgN/A
12:20 PM91 °FPassing clouds.5 mph24%29.92 "HgN/A
11:50 AM90 °FPassing clouds.3 mph22%29.92 "HgN/A
11:20 AM88 °FPassing clouds.3 mph25%29.92 "HgN/A
10:50 AM86 °FSunny.5 mph27%29.92 "Hg10 mi
10:20 AM86 °FSunny.2 mph27%29.92 "Hg10 mi
9:50 AM82 °FSunny.2 mph30%29.95 "Hg10 mi
9:20 AM79 °FPassing clouds.3 mph42%29.95 "HgN/A
8:50 AM77 °FSunny.3 mph42%29.95 "Hg10 mi
8:20 AM75 °FSunny.2 mph44%29.95 "Hg10 mi
7:50 AM70 °FSunny.3 mph53%29.95 "Hg10 mi
7:20 AM68 °FSunny.3 mph56%29.95 "Hg10 mi
6:50 AM66 °FSunny.1 mph60%29.95 "Hg10 mi
6:20 AM64 °FClear.1 mph64%29.95 "Hg10 mi
5:50 AM66 °FClear.2 mph56%29.95 "Hg10 mi
5:20 AM66 °FClear.5 mph60%29.95 "Hg10 mi
4:50 AM66 °FClear.7 mph56%29.95 "Hg10 mi
4:20 AM68 °FClear.7 mph53%29.95 "Hg10 mi
3:50 AM68 °FClear.9 mph53%29.95 "Hg10 mi
3:20 AM70 °FClear.8 mph53%29.95 "Hg10 mi
2:50 AM70 °FClear.12 mph53%29.95 "Hg10 mi
2:20 AM70 °FClear.7 mph53%29.95 "Hg10 mi
1:50 AM72 °FClear.6 mph50%29.95 "Hg10 mi
1:20 AM73 °FClear.8 mph47%29.95 "Hg10 mi
12:50 AM75 °FClear.9 mph44%29.95 "Hg10 mi
12:20 AM75 °FClear.8 mph44%29.95 "Hg10 mi
11:50 PM
Wed, Jul 29
77 °FClear.10 mph42%29.95 "Hg10 mi
11:20 PM75 °FClear.9 mph41%29.95 "Hg10 mi
10:50 PM77 °FClear.8 mph36%29.95 "Hg10 mi
10:20 PM77 °FClear.8 mph36%29.95 "Hg10 mi
9:50 PM77 °FClear.9 mph36%29.92 "Hg10 mi
9:20 PM79 °FClear.9 mph32%29.92 "Hg10 mi
8:50 PM81 °FSunny.7 mph30%29.89 "Hg10 mi
8:20 PM86 °FPassing clouds.6 mph24%29.89 "HgN/A
7:50 PM86 °FPassing clouds.6 mph24%29.89 "HgN/A
7:20 PM88 °FPassing clouds.8 mph22%29.89 "HgN/A
Weather by CustomWeather, © 2015

See weather overviewHow to use our weather pages